| time (UTC) | temp F | wind direction | speed MPH | gust MPH | rain 1hr in | rain 24hr in | rain mn in | humidity % | barometer mb |
| 20260901143304 | 67 | 320 | 0.0 | 0.0 | 0.07 | 0.65 | 0.65 | 99 | 1018.8 |
| 20260901142800 | 68 | 323 | 0.0 | 0.0 | 0.12 | 0.65 | 0.65 | 99 | 1018.8 |
| 20260901142258 | 68 | 327 | 0.0 | 0.0 | 0.19 | 0.65 | 0.65 | 99 | 1019.1 |
| 20260901141754 | 68 | 324 | 0.0 | 0.0 | 0.19 | 0.63 | 0.63 | 99 | 1019.2 |
| 20260901141249 | 67 | 320 | 0.0 | 0.0 | 0.17 | 0.62 | 0.62 | 99 | 1019.3 |
| 20260901140748 | 67 | 324 | 0.0 | 0.0 | 0.05 | 0.60 | 0.60 | 99 | 1019.2 |
| 20260901140246 | 67 | 325 | 0.0 | 0.0 | 0.00 | 0.59 | 0.59 | 99 | 1019.2 |
| 20260901135741 | 67 | 327 | 0.0 | 0.0 | 0.00 | 0.59 | 0.59 | 99 | 1019.1 |
| 20260901135236 | 67 | 327 | 0.0 | 0.0 | 0.00 | 0.59 | 0.59 | 99 | 1019.2 |
| 20260901134731 | 67 | 328 | 0.0 | 0.0 | 0.07 | 0.59 | 0.59 | 99 | 1019.1 |
| 20260901134225 | 67 | 325 | 0.0 | 0.0 | 0.07 | 0.59 | 0.59 | 99 | 1019.1 |
| 20260901133725 | 67 | 316 | 0.0 | 0.0 | 0.07 | 0.58 | 0.58 | 99 | 1019.4 |
| 20260901133224 | 67 | 323 | 0.0 | 0.0 | 0.12 | 0.58 | 0.58 | 99 | 1019.0 |
| 20260901132723 | 67 | 322 | 0.0 | 0.0 | 0.05 | 0.57 | 0.57 | 99 | 1019.4 |
| 20260901132218 | 67 | 329 | 0.0 | 0.0 | 0.07 | 0.56 | 0.56 | 99 | 1019.5 |
| 20260901131713 | 67 | 326 | 0.0 | 0.0 | 0.12 | 0.56 | 0.56 | 99 | 1019.3 |
| 20260901131213 | 67 | 326 | 0.0 | 0.0 | 0.05 | 0.55 | 0.55 | 99 | 1019.2 |
| 20260901130708 | 66 | 326 | 0.0 | 0.0 | 0.19 | 0.54 | 0.54 | 99 | 1019.3 |
| 20260901130207 | 66 | 329 | 0.0 | 0.0 | 0.54 | 0.54 | 0.54 | 99 | 1019.3 |
| 20260901125705 | 66 | 327 | 0.0 | 0.0 | 0.42 | 0.52 | 0.52 | 99 | 1019.9 |
| 20260901125200 | 66 | 322 | 0.0 | 0.0 | 0.00 | 0.45 | 0.45 | 99 | 1019.7 |
| 20260901124654 | 66 | 322 | 0.0 | 0.0 | 0.00 | 0.45 | 0.45 | 99 | 1019.7 |
| 20260901124149 | 66 | 323 | 0.0 | 0.0 | 0.00 | 0.45 | 0.45 | 99 | 1019.6 |
| 20260901123644 | 67 | 323 | 0.0 | 0.0 | 0.00 | 0.45 | 0.45 | 99 | 1019.5 |
| 20260901123144 | 67 | 323 | 0.0 | 0.0 | 0.00 | 0.45 | 0.45 | 99 | 1019.4 |
| 20260901122642 | 67 | 323 | 0.0 | 0.0 | 0.00 | 0.45 | 0.45 | 99 | 1019.6 |
| 20260901122137 | 66 | 329 | 0.0 | 0.0 | 0.00 | 0.45 | 0.45 | 99 | 1019.2 |
| 20260901121631 | 66 | 344 | 0.0 | 0.0 | 0.00 | 0.45 | 0.45 | 99 | 1019.3 |
| 20260901121127 | 67 | 328 | 0.0 | 0.0 | 0.00 | 0.45 | 0.45 | 99 | 1019.1 |
| 20260901120626 | 67 | 329 | 0.0 | 0.0 | 0.00 | 0.45 | 0.45 | 99 | 1019.0 |
| 20260901120121 | 66 | 325 | 0.0 | 0.0 | 0.00 | 0.45 | 0.45 | 99 | 1019.1 |
| 20260901115616 | 66 | 321 | 0.0 | 0.0 | 0.00 | 0.45 | 0.45 | 99 | 1019.1 |
| 20260901115113 | 66 | 326 | 0.0 | 0.0 | 0.00 | 0.45 | 0.45 | 99 | 1019.0 |
| 20260901114609 | 66 | 326 | 0.0 | 0.0 | 0.00 | 0.45 | 0.45 | 99 | 1019.1 |
| 20260901114108 | 66 | 326 | 0.0 | 0.0 | 0.00 | 0.45 | 0.45 | 99 | 1019.2 |
| 20260901113607 | 66 | 331 | 0.0 | 0.0 | 0.00 | 0.45 | 0.45 | 99 | 1019.1 |
| 20260901113057 | 66 | 324 | 0.0 | 0.0 | 0.00 | 0.45 | 0.45 | 99 | 1019.2 |
| 20260901112556 | 66 | 323 | 0.0 | 0.0 | 0.00 | 0.45 | 0.45 | 99 | 1019.4 |
| 20260901112051 | 66 | 326 | 0.0 | 0.0 | 0.00 | 0.45 | 0.45 | 99 | 1019.4 |
| 20260901111550 | 66 | 326 | 0.0 | 0.0 | 0.05 | 0.45 | 0.45 | 99 | 1019.2 |
| 20260901111049 | 66 | 324 | 0.0 | 0.0 | 0.05 | 0.45 | 0.45 | 99 | 1019.2 |
| 20260901110545 | 66 | 324 | 0.0 | 0.0 | 0.00 | 0.44 | 0.44 | 99 | 1019.1 |
| 20260901110041 | 66 | 343 | 0.0 | 0.0 | 0.00 | 0.44 | 0.44 | 99 | 1019.1 |
| 20260901105537 | 66 | 324 | 0.0 | 0.0 | 0.00 | 0.44 | 0.44 | 99 | 1019.3 |
| 20260901105036 | 66 | 328 | 0.0 | 0.0 | 0.00 | 0.44 | 0.44 | 99 | 1019.2 |
| 20260901104532 | 66 | 322 | 0.0 | 0.0 | 0.00 | 0.44 | 0.44 | 99 | 1019.1 |
| 20260901104027 | 65 | 323 | 0.0 | 0.0 | 0.00 | 0.44 | 0.44 | 99 | 1019.2 |
| 20260901103522 | 65 | 320 | 0.0 | 0.0 | 0.00 | 0.44 | 0.44 | 99 | 1019.4 |
| 20260901103018 | 65 | 323 | 0.0 | 0.0 | 0.00 | 0.44 | 0.44 | 99 | 1019.3 |
| 20260901102517 | 65 | 331 | 0.0 | 0.0 | 0.00 | 0.44 | 0.44 | 99 | 1019.3 |
| 20260901102012 | 65 | 320 | 0.0 | 0.0 | 0.00 | 0.44 | 0.44 | 99 | 1019.2 |
| 20260901101508 | 65 | 339 | 0.0 | 0.0 | 0.00 | 0.44 | 0.44 | 99 | 1019.4 |
| 20260901101001 | 65 | 323 | 0.0 | 0.0 | 0.00 | 0.44 | 0.44 | 99 | 1019.1 |
| 20260901100456 | 65 | 322 | 0.0 | 0.0 | 0.00 | 0.44 | 0.44 | 99 | 1019.1 |
| 20260901095955 | 65 | 320 | 0.0 | 0.0 | 0.00 | 0.44 | 0.44 | 99 | 1019.0 |
| 20260901095454 | 65 | 325 | 0.0 | 0.0 | 0.00 | 0.44 | 0.44 | 99 | 1019.1 |
| 20260901094952 | 65 | 325 | 0.0 | 0.0 | 0.00 | 0.44 | 0.44 | 99 | 1019.0 |
| 20260901094447 | 65 | 321 | 0.0 | 0.0 | 0.00 | 0.44 | 0.44 | 99 | 1019.0 |
| 20260901093946 | 65 | 321 | 0.0 | 0.0 | 0.00 | 0.44 | 0.44 | 99 | 1018.9 |
| 20260901093441 | 65 | 331 | 0.0 | 0.0 | 0.00 | 0.44 | 0.44 | 99 | 1019.1 |
| 20260901092936 | 65 | 322 | 0.0 | 0.0 | 0.00 | 0.44 | 0.44 | 99 | 1019.1 |
| 20260901092432 | 65 | 325 | 0.0 | 0.0 | 0.00 | 0.44 | 0.44 | 99 | 1019.3 |
| 20260901091928 | 65 | 325 | 0.0 | 0.0 | 0.00 | 0.44 | 0.44 | 99 | 1019.2 |
| 20260901091428 | 65 | 326 | 0.0 | 0.0 | 0.00 | 0.44 | 0.44 | 99 | 1019.3 |
| 20260901090923 | 65 | 30 | 0.0 | 0.0 | 0.00 | 0.44 | 0.44 | 99 | 1019.3 |
| 20260901090422 | 65 | 331 | 0.0 | 0.0 | 0.00 | 0.44 | 0.44 | 99 | 1019.4 |
| 20260901085918 | 65 | 307 | 0.0 | 0.0 | 0.00 | 0.44 | 0.44 | 99 | 1019.0 |
| 20260901085414 | 65 | 328 | 0.0 | 0.0 | 0.00 | 0.44 | 0.44 | 99 | 1019.4 |
| 20260901084910 | 65 | 328 | 0.0 | 0.0 | 0.00 | 0.44 | 0.44 | 99 | 1019.4 |
| 20260901084406 | 65 | 323 | 0.0 | 0.0 | 0.00 | 0.44 | 0.44 | 99 | 1019.4 |
| 20260901083901 | 65 | 324 | 0.0 | 0.0 | 0.00 | 0.44 | 0.44 | 99 | 1019.3 |
| 20260901083356 | 65 | 328 | 0.0 | 0.0 | 0.00 | 0.44 | 0.44 | 99 | 1019.4 |
| 20260901082854 | 65 | 327 | 0.0 | 0.0 | 0.07 | 0.44 | 0.44 | 99 | 1019.5 |
| 20260901082349 | 65 | 323 | 0.0 | 0.0 | 0.07 | 0.44 | 0.44 | 99 | 1019.4 |
| 20260901081838 | 65 | 324 | 0.0 | 0.0 | 0.07 | 0.44 | 0.44 | 99 | 1019.4 |
| 20260901081333 | 65 | 340 | 0.0 | 0.0 | 0.00 | 0.43 | 0.43 | 99 | 1019.6 |
| 20260901080828 | 65 | 1 | 1.0 | 1.0 | 0.00 | 0.43 | 0.43 | 99 | 1019.6 |
| 20260901080322 | 66 | 316 | 0.0 | 0.0 | 0.00 | 0.43 | 0.43 | 99 | 1019.7 |
| 20260901075816 | 66 | 330 | 0.0 | 0.0 | 0.05 | 0.43 | 0.43 | 99 | 1019.9 |
| 20260901075311 | 66 | 325 | 0.0 | 0.0 | 0.05 | 0.43 | 0.43 | 99 | 1019.7 |
| 20260901074807 | 66 | 325 | 0.0 | 0.0 | 0.00 | 0.42 | 0.42 | 99 | 1020.0 |
| 20260901074301 | 66 | 323 | 0.0 | 0.0 | 0.07 | 0.42 | 0.42 | 99 | 1019.9 |
| 20260901073757 | 66 | 320 | 0.0 | 0.0 | 0.14 | 0.42 | 0.42 | 99 | 1019.8 |
| 20260901073252 | 66 | 324 | 0.0 | 0.0 | 0.12 | 0.41 | 0.41 | 99 | 1019.8 |
| 20260901072748 | 66 | 329 | 0.0 | 0.0 | 0.05 | 0.40 | 0.40 | 99 | 1019.8 |
| 20260901072243 | 66 | 328 | 0.0 | 0.0 | 0.00 | 0.39 | 0.39 | 99 | 1019.8 |
| 20260901071742 | 66 | 325 | 0.0 | 0.0 | 0.00 | 0.39 | 0.39 | 99 | 1019.8 |
| 20260901071236 | 66 | 334 | 0.0 | 0.0 | 0.00 | 0.39 | 0.39 | 99 | 1020.0 |
| 20260901070730 | 66 | 320 | 0.0 | 0.0 | 0.00 | 0.39 | 0.39 | 99 | 1020.1 |
| 20260901070225 | 66 | 334 | 0.0 | 0.0 | 0.00 | 0.39 | 0.39 | 99 | 1020.0 |
| 20260901065725 | 66 | 330 | 0.0 | 0.0 | 0.00 | 0.39 | 0.39 | 99 | 1020.1 |
| 20260901065220 | 66 | 328 | 0.0 | 0.0 | 0.07 | 0.39 | 0.39 | 99 | 1019.9 |
| 20260901064716 | 66 | 330 | 0.0 | 0.0 | 0.07 | 0.39 | 0.39 | 99 | 1019.8 |
| 20260901064212 | 66 | 323 | 0.0 | 0.0 | 0.00 | 0.38 | 0.38 | 99 | 1020.1 |
| 20260901063709 | 66 | 318 | 0.0 | 0.0 | 0.00 | 0.38 | 0.38 | 99 | 1020.1 |
| 20260901063205 | 65 | 326 | 0.0 | 0.0 | 0.05 | 0.38 | 0.38 | 99 | 1020.2 |
| 20260901062700 | 65 | 323 | 0.0 | 0.0 | 0.17 | 0.38 | 0.38 | 99 | 1020.1 |
| 20260901062156 | 66 | 317 | 0.0 | 0.0 | 0.19 | 0.37 | 0.37 | 99 | 1020.3 |
| 20260901061652 | 66 | 327 | 0.0 | 0.0 | 0.12 | 0.35 | 0.35 | 99 | 1020.2 |
| 20260901061152 | 66 | 318 | 0.0 | 0.0 | 0.05 | 0.34 | 0.34 | 99 | 1020.4 |
| 20260901060647 | 66 | 321 | 0.0 | 0.0 | 0.12 | 0.33 | 0.33 | 99 | 1020.3 |
| 20260901060143 | 66 | 309 | 0.0 | 1.0 | 0.24 | 0.33 | 0.33 | 99 | 1020.3 |
| 20260901055638 | 66 | 329 | 0.0 | 0.0 | 0.54 | 0.31 | 0.31 | 99 | 1020.5 |
| 20260901055134 | 66 | 337 | 0.0 | 0.0 | 0.66 | 0.29 | 0.29 | 99 | 1020.3 |
| 20260901054631 | 66 | 324 | 0.0 | 0.0 | 0.66 | 0.23 | 0.23 | 99 | 1020.4 |
| 20260901054127 | 66 | 318 | 0.0 | 0.0 | 0.47 | 0.17 | 0.17 | 99 | 1020.4 |
| 20260901053623 | 66 | 327 | 0.0 | 0.0 | 0.28 | 0.12 | 0.12 | 99 | 1020.6 |
| 20260901053118 | 66 | 8 | 0.0 | 0.0 | 0.31 | 0.09 | 0.09 | 99 | 1020.6 |
| 20260901052618 | 66 | 352 | 0.0 | 0.0 | 0.19 | 0.07 | 0.07 | 99 | 1020.5 |
| 20260901052114 | 66 | 329 | 0.0 | 0.0 | 0.07 | 0.04 | 0.04 | 99 | 1020.4 |
| 20260901051614 | 66 | 326 | 0.0 | 0.0 | 0.12 | 0.04 | 0.04 | 99 | 1020.7 |
| 20260901051112 | 66 | 322 | 0.0 | 0.0 | 0.05 | 0.03 | 0.03 | 99 | 1020.6 |
| 20260901050608 | 66 | 326 | 0.0 | 0.0 | 0.07 | 0.02 | 0.02 | 99 | 1020.8 |
| 20260901045557 | 66 | 325 | 0.0 | 0.0 | 0.00 | 0.01 | 0.01 | 99 | 1020.6 |
| 20260901045052 | 66 | 330 | 0.0 | 0.0 | 0.00 | 0.01 | 0.01 | 99 | 1020.7 |
| 20260901044548 | 66 | 321 | 0.0 | 0.0 | 0.00 | 0.01 | 0.01 | 99 | 1020.6 |
| 20260901044044 | 66 | 324 | 0.0 | 0.0 | 0.00 | 0.01 | 0.01 | 99 | 1020.8 |
| 20260901043539 | 66 | 326 | 0.0 | 0.0 | 0.00 | 0.01 | 0.01 | 99 | 1021.0 |
| 20260901043035 | 66 | 342 | 0.0 | 0.0 | 0.05 | 0.01 | 0.01 | 99 | 1020.8 |
| 20260901042534 | 66 | 328 | 0.0 | 0.0 | 0.05 | 0.01 | 0.01 | 99 | 1020.9 |
| 20260901042029 | 66 | 328 | 0.0 | 0.0 | 0.00 | 0.00 | 0.00 | 99 | 1020.8 |
| 20260901041525 | 66 | 330 | 0.0 | 0.0 | 0.00 | 0.00 | 0.00 | 99 | 1021.1 |
| 20260901041020 | 66 | 323 | 0.0 | 0.0 | 0.00 | 0.00 | 0.00 | 99 | 1021.0 |
| 20260901040519 | 66 | 324 | 0.0 | 0.0 | 0.00 | 0.00 | 0.00 | 99 | 1020.9 |
| 20260901040014 | 66 | 324 | 0.0 | 0.0 | 0.00 | 0.03 | 0.03 | 99 | 1021.0 |
| 20260901035512 | 66 | 316 | 0.0 | 0.0 | 0.00 | 0.03 | 0.03 | 99 | 1021.0 |
| 20260901035010 | 66 | 324 | 0.0 | 0.0 | 0.00 | 0.03 | 0.03 | 99 | 1021.1 |
| 20260901034510 | 66 | 323 | 0.0 | 0.0 | 0.00 | 0.03 | 0.03 | 99 | 1021.0 |
| 20260901034005 | 66 | 322 | 0.0 | 0.0 | 0.00 | 0.03 | 0.03 | 99 | 1021.0 |
| 20260901033504 | 66 | 329 | 0.0 | 0.0 | 0.07 | 0.03 | 0.03 | 99 | 1020.9 |
| 20260901033004 | 66 | 328 | 0.0 | 0.0 | 0.07 | 0.03 | 0.03 | 99 | 1020.8 |
| 20260901032458 | 66 | 333 | 0.0 | 0.0 | 0.00 | 0.02 | 0.02 | 99 | 1021.1 |
| 20260901031952 | 66 | 314 | 0.0 | 0.0 | 0.00 | 0.02 | 0.02 | 99 | 1021.0 |
| 20260901031448 | 66 | 319 | 0.0 | 0.0 | 0.00 | 0.02 | 0.02 | 99 | 1021.1 |
| 20260901030948 | 66 | 327 | 0.0 | 0.0 | 0.00 | 0.02 | 0.02 | 99 | 1021.3 |
| 20260901030444 | 66 | 330 | 0.0 | 0.0 | 0.05 | 0.02 | 0.02 | 99 | 1021.2 |
| 20260901025943 | 66 | 333 | 0.0 | 0.0 | 0.05 | 0.02 | 0.02 | 99 | 1021.4 |
| 20260901025438 | 66 | 326 | 0.0 | 0.0 | 0.00 | 0.01 | 0.01 | 99 | 1021.4 |
| 20260901024937 | 66 | 328 | 0.0 | 0.0 | 0.00 | 0.01 | 0.01 | 99 | 1021.3 |
| 20260901024432 | 66 | 334 | 0.0 | 0.0 | 0.00 | 0.01 | 0.01 | 99 | 1021.5 |
| 20260901023930 | 66 | 330 | 0.0 | 0.0 | 0.00 | 0.01 | 0.01 | 99 | 1021.5 |
| 20260901023425 | 66 | 331 | 0.0 | 0.0 | 0.00 | 0.01 | 0.01 | 99 | 1021.5 |
| 20260901022920 | 66 | 331 | 0.0 | 0.0 | 0.00 | 0.01 | 0.01 | 99 | 1021.7 |
| 20260901022416 | 66 | 330 | 0.0 | 0.0 | 0.00 | 0.01 | 0.01 | 99 | 1021.7 |
| 20260901021911 | 66 | 329 | 0.0 | 0.0 | 0.00 | 0.01 | 0.01 | 99 | 1021.5 |
| 20260901021407 | 66 | 331 | 0.0 | 0.0 | 0.00 | 0.01 | 0.01 | 99 | 1021.6 |
| 20260901020902 | 66 | 322 | 0.0 | 0.0 | 0.00 | 0.01 | 0.01 | 99 | 1021.7 |
| 20260901020357 | 66 | 329 | 0.0 | 0.0 | 0.00 | 0.01 | 0.01 | 99 | 1021.4 |
| 20260901015856 | 66 | 328 | 0.0 | 0.0 | 0.00 | 0.01 | 0.01 | 99 | 1021.4 |
| 20260901015353 | 66 | 327 | 0.0 | 0.0 | 0.00 | 0.01 | 0.01 | 99 | 1021.6 |
| 20260901014852 | 66 | 333 | 0.0 | 0.0 | 0.00 | 0.01 | 0.01 | 99 | 1021.4 |
| 20260901014348 | 66 | 328 | 0.0 | 0.0 | 0.00 | 0.01 | 0.01 | 99 | 1021.4 |
| 20260901013843 | 66 | 319 | 0.0 | 0.0 | 0.00 | 0.01 | 0.01 | 99 | 1021.6 |
| 20260901013339 | 66 | 328 | 0.0 | 0.0 | 0.00 | 0.01 | 0.01 | 99 | 1021.3 |
| 20260901012834 | 66 | 330 | 0.0 | 0.0 | 0.00 | 0.01 | 0.01 | 99 | 1021.6 |
| 20260901012329 | 66 | 334 | 0.0 | 0.0 | 0.00 | 0.01 | 0.01 | 99 | 1021.6 |
| 20260901011825 | 66 | 330 | 0.0 | 0.0 | 0.00 | 0.01 | 0.01 | 99 | 1021.7 |
| 20260901011320 | 66 | 322 | 0.0 | 0.0 | 0.00 | 0.01 | 0.01 | 99 | 1021.7 |
| 20260901010813 | 66 | 331 | 0.0 | 0.0 | 0.00 | 0.01 | 0.01 | 99 | 1021.8 |
| 20260901010308 | 66 | 333 | 0.0 | 0.0 | 0.00 | 0.01 | 0.01 | 99 | 1021.4 |
| 20260901005806 | 66 | 330 | 0.0 | 0.0 | 0.00 | 0.01 | 0.01 | 99 | 1021.6 |
| 20260901005306 | 66 | 327 | 0.0 | 0.0 | 0.00 | 0.01 | 0.01 | 99 | 1021.8 |
| 20260901004802 | 66 | 318 | 0.0 | 0.0 | 0.00 | 0.01 | 0.01 | 99 | 1021.7 |
| 20260901004257 | 66 | 318 | 0.0 | 0.0 | 0.00 | 0.01 | 0.01 | 99 | 1021.7 |
| 20260901003756 | 66 | 330 | 0.0 | 0.0 | 0.00 | 0.01 | 0.01 | 99 | 1021.4 |
| 20260901003251 | 66 | 314 | 0.0 | 0.0 | 0.00 | 0.01 | 0.01 | 99 | 1021.6 |
| 20260901002744 | 66 | 318 | 0.0 | 0.0 | 0.00 | 0.01 | 0.01 | 99 | 1021.5 |
| 20260901002239 | 66 | 317 | 0.0 | 0.0 | 0.00 | 0.01 | 0.01 | 99 | 1021.7 |
| 20260901001729 | 66 | 319 | 0.0 | 0.0 | 0.00 | 0.01 | 0.01 | 99 | 1021.6 |
| 20260901001224 | 66 | 318 | 0.0 | 0.0 | 0.00 | 0.01 | 0.01 | 99 | 1021.5 |
| 20260901000719 | 66 | 269 | 0.0 | 0.0 | 0.00 | 0.01 | 0.01 | 99 | 1021.5 |
| 20260901000214 | 66 | 328 | 0.0 | 0.0 | 0.00 | 0.01 | 0.01 | 99 | 1021.4 |
| 20260831235708 | 66 | 325 | 0.0 | 0.0 | 0.00 | 0.01 | 0.01 | 99 | 1021.3 |
| 20260831235204 | 66 | 310 | 0.0 | 0.0 | 0.00 | 0.01 | 0.01 | 99 | 1021.4 |
| 20260831234703 | 66 | 16 | 0.0 | 0.0 | 0.00 | 0.01 | 0.01 | 99 | 1021.4 |
| 20260831234203 | 66 | 317 | 0.0 | 0.0 | 0.00 | 0.01 | 0.01 | 99 | 1021.3 |
| 20260831233659 | 66 | 313 | 0.0 | 0.0 | 0.00 | 0.01 | 0.01 | 99 | 1021.3 |
| 20260831233154 | 66 | 313 | 0.0 | 0.0 | 0.00 | 0.01 | 0.01 | 99 | 1021.4 |
| 20260831232649 | 66 | 306 | 0.0 | 0.0 | 0.00 | 0.01 | 0.01 | 99 | 1021.6 |
| 20260831232145 | 66 | 333 | 0.0 | 0.0 | 0.00 | 0.01 | 0.01 | 98 | 1021.6 |
| 20260831231641 | 66 | 312 | 0.0 | 0.0 | 0.00 | 0.01 | 0.01 | 98 | 1021.8 |
| 20260831231137 | 66 | 317 | 0.0 | 0.0 | 0.00 | 0.01 | 0.01 | 98 | 1021.8 |
| 20260831230632 | 66 | 28 | 0.0 | 1.0 | 0.00 | 0.01 | 0.01 | 97 | 1021.8 |
| 20260831230127 | 66 | 331 | 0.0 | 0.0 | 0.00 | 0.01 | 0.01 | 97 | 1021.7 |
| 20260831225627 | 66 | 316 | 0.0 | 0.0 | 0.00 | 0.01 | 0.01 | 97 | 1022.1 |
| 20260831225122 | 66 | 309 | 0.0 | 0.0 | 0.00 | 0.01 | 0.01 | 96 | 1021.9 |
| 20260831224617 | 66 | 321 | 0.0 | 0.0 | 0.00 | 0.01 | 0.01 | 96 | 1022.1 |
| 20260831224113 | 67 | 318 | 0.0 | 0.0 | 0.00 | 0.01 | 0.01 | 95 | 1022.0 |
| 20260831223608 | 67 | 318 | 0.0 | 0.0 | 0.00 | 0.01 | 0.01 | 94 | 1022.1 |
| 20260831223104 | 67 | 314 | 0.0 | 0.0 | 0.00 | 0.01 | 0.01 | 94 | 1021.9 |
| 20260831222555 | 68 | 341 | 0.0 | 0.0 | 0.00 | 0.01 | 0.01 | 92 | 1022.1 |
| 20260831222054 | 68 | 316 | 0.0 | 0.0 | 0.00 | 0.01 | 0.01 | 92 | 1022.3 |
| 20260831221550 | 68 | 327 | 0.0 | 0.0 | 0.00 | 0.01 | 0.01 | 91 | 1022.1 |
| 20260831221045 | 68 | 316 | 0.0 | 0.0 | 0.00 | 0.01 | 0.01 | 92 | 1022.2 |
| 20260831220544 | 69 | 316 | 0.0 | 0.0 | 0.00 | 0.01 | 0.01 | 92 | 1022.1 |
| 20260831220040 | 69 | 320 | 0.0 | 0.0 | 0.00 | 0.01 | 0.01 | 90 | 1021.9 |
| 20260831215536 | 69 | 327 | 0.0 | 0.0 | 0.00 | 0.01 | 0.01 | 89 | 1021.8 |
| 20260831215031 | 69 | 331 | 0.0 | 0.0 | 0.00 | 0.01 | 0.01 | 88 | 1022.0 |
| 20260831214529 | 69 | 332 | 0.0 | 0.0 | 0.00 | 0.01 | 0.01 | 89 | 1021.6 |
| 20260831214024 | 69 | 332 | 0.0 | 0.0 | 0.00 | 0.01 | 0.01 | 88 | 1021.7 |
| 20260831213521 | 69 | 333 | 0.0 | 0.0 | 0.00 | 0.01 | 0.01 | 87 | 1021.8 |
| 20260831213016 | 70 | 336 | 0.0 | 0.0 | 0.00 | 0.01 | 0.01 | 87 | 1021.9 |
| 20260831212512 | 70 | 332 | 0.0 | 0.0 | 0.00 | 0.01 | 0.01 | 85 | 1021.7 |
| 20260831212007 | 70 | 352 | 0.0 | 0.0 | 0.00 | 0.01 | 0.01 | 84 | 1021.6 |
| 20260831211502 | 70 | 329 | 0.0 | 0.0 | 0.00 | 0.01 | 0.01 | 84 | 1021.8 |
| 20260831211001 | 70 | 329 | 0.0 | 0.0 | 0.00 | 0.01 | 0.01 | 84 | 1021.9 |
| 20260831210456 | 70 | 323 | 0.0 | 0.0 | 0.00 | 0.01 | 0.01 | 85 | 1021.9 |
| 20260831205952 | 70 | 335 | 0.0 | 0.0 | 0.00 | 0.01 | 0.01 | 84 | 1021.8 |
| 20260831205448 | 70 | 328 | 0.0 | 0.0 | 0.00 | 0.01 | 0.01 | 84 | 1022.0 |
| 20260831204943 | 71 | 328 | 0.0 | 0.0 | 0.00 | 0.01 | 0.01 | 83 | 1021.8 |
| 20260831204442 | 71 | 341 | 0.0 | 0.0 | 0.00 | 0.01 | 0.01 | 82 | 1021.7 |
| 20260831203941 | 71 | 336 | 0.0 | 0.0 | 0.00 | 0.01 | 0.01 | 83 | 1022.0 |
| 20260831203435 | 71 | 333 | 0.0 | 0.0 | 0.00 | 0.01 | 0.01 | 83 | 1021.6 |
| 20260831202934 | 71 | 331 | 0.0 | 0.0 | 0.00 | 0.01 | 0.01 | 84 | 1021.7 |
| 20260831202429 | 71 | 332 | 0.0 | 0.0 | 0.00 | 0.01 | 0.01 | 84 | 1021.8 |
| 20260831201923 | 71 | 328 | 0.0 | 0.0 | 0.00 | 0.01 | 0.01 | 82 | 1021.9 |
| 20260831201422 | 71 | 335 | 0.0 | 0.0 | 0.00 | 0.01 | 0.01 | 80 | 1021.7 |
| 20260831200918 | 72 | 335 | 0.0 | 0.0 | 0.00 | 0.01 | 0.01 | 82 | 1022.0 |
| 20260831200413 | 72 | 332 | 0.0 | 0.0 | 0.00 | 0.01 | 0.01 | 80 | 1021.8 |
| 20260831195913 | 72 | 323 | 0.0 | 0.0 | 0.00 | 0.01 | 0.01 | 79 | 1021.8 |
| 20260831195409 | 71 | 335 | 0.0 | 0.0 | 0.00 | 0.01 | 0.01 | 80 | 1021.9 |
| 20260831194904 | 71 | 345 | 0.0 | 0.0 | 0.00 | 0.01 | 0.01 | 81 | 1022.2 |
| 20260831194359 | 71 | 328 | 0.0 | 0.0 | 0.00 | 0.01 | 0.01 | 83 | 1022.0 |
| 20260831193859 | 71 | 333 | 0.0 | 0.0 | 0.00 | 0.01 | 0.01 | 83 | 1022.3 |
| 20260831193354 | 72 | 329 | 0.0 | 0.0 | 0.00 | 0.01 | 0.01 | 81 | 1022.2 |
| 20260831192849 | 71 | 327 | 0.0 | 0.0 | 0.00 | 0.01 | 0.01 | 80 | 1022.3 |
| 20260831192344 | 72 | 337 | 0.0 | 0.0 | 0.00 | 0.01 | 0.01 | 79 | 1022.2 |
| 20260831191840 | 72 | 326 | 0.0 | 1.0 | 0.00 | 0.01 | 0.01 | 79 | 1022.2 |
| 20260831191336 | 72 | 332 | 0.0 | 0.0 | 0.00 | 0.01 | 0.01 | 80 | 1022.5 |
| 20260831190832 | 73 | 325 | 0.0 | 0.0 | 0.00 | 0.01 | 0.01 | 79 | 1022.5 |
| 20260831190331 | 73 | 315 | 0.0 | 0.0 | 0.00 | 0.01 | 0.01 | 76 | 1022.7 |
| 20260831185830 | 72 | 338 | 0.0 | 0.0 | 0.00 | 0.01 | 0.01 | 78 | 1022.9 |
| 20260831185326 | 73 | 311 | 0.0 | 0.0 | 0.00 | 0.01 | 0.01 | 79 | 1022.9 |
| 20260831184825 | 73 | 323 | 0.0 | 0.0 | 0.00 | 0.01 | 0.01 | 77 | 1023.0 |
| 20260831184321 | 73 | 323 | 0.0 | 0.0 | 0.00 | 0.01 | 0.01 | 80 | 1022.9 |
| 20260831183822 | 73 | 326 | 0.0 | 0.0 | 0.00 | 0.01 | 0.01 | 77 | 1023.0 |
| 20260831183321 | 73 | 306 | 1.0 | 2.0 | 0.00 | 0.01 | 0.01 | 77 | 1022.9 |
| 20260831182820 | 73 | 350 | 1.0 | 1.0 | 0.00 | 0.01 | 0.01 | 78 | 1022.8 |
| 20260831182315 | 73 | 312 | 1.0 | 1.0 | 0.00 | 0.01 | 0.01 | 77 | 1023.1 |
| 20260831181811 | 73 | 312 | 0.0 | 0.0 | 0.00 | 0.01 | 0.01 | 79 | 1022.8 |
| 20260831181306 | 73 | 309 | 0.0 | 0.0 | 0.00 | 0.01 | 0.01 | 80 | 1023.0 |
| 20260831180801 | 73 | 334 | 0.0 | 0.0 | 0.00 | 0.01 | 0.01 | 78 | 1023.0 |
| 20260831180255 | 73 | 314 | 0.0 | 0.0 | 0.00 | 0.01 | 0.01 | 78 | 1023.1 |
| 20260831175754 | 73 | 314 | 0.0 | 0.0 | 0.00 | 0.01 | 0.01 | 79 | 1023.3 |
| 20260831175251 | 74 | 316 | 0.0 | 0.0 | 0.00 | 0.01 | 0.01 | 79 | 1023.3 |
| 20260831174746 | 73 | 319 | 0.0 | 0.0 | 0.00 | 0.01 | 0.01 | 80 | 1023.2 |
| 20260831174242 | 73 | 335 | 0.0 | 0.0 | 0.00 | 0.01 | 0.01 | 81 | 1023.4 |
| 20260831173741 | 73 | 320 | 0.0 | 0.0 | 0.00 | 0.01 | 0.01 | 80 | 1023.5 |
| 20260831173235 | 73 | 319 | 0.0 | 0.0 | 0.00 | 0.01 | 0.01 | 79 | 1023.6 |
| 20260831172731 | 72 | 311 | 0.0 | 0.0 | 0.00 | 0.01 | 0.01 | 79 | 1023.3 |
| 20260831172226 | 72 | 316 | 0.0 | 0.0 | 0.00 | 0.01 | 0.01 | 79 | 1023.5 |
| 20260831171720 | 73 | 315 | 0.0 | 0.0 | 0.00 | 0.01 | 0.01 | 79 | 1023.3 |
| 20260831171218 | 74 | 302 | 0.0 | 1.0 | 0.00 | 0.01 | 0.01 | 77 | 1023.1 |
| 20260831170714 | 73 | 315 | 0.0 | 0.0 | 0.00 | 0.01 | 0.01 | 80 | 1023.4 |
| 20260831170210 | 73 | 315 | 1.0 | 1.0 | 0.00 | 0.01 | 0.01 | 77 | 1023.1 |
| 20260831165706 | 74 | 310 | 0.0 | 1.0 | 0.00 | 0.01 | 0.01 | 78 | 1023.1 |
| 20260831165203 | 74 | 318 | 0.0 | 0.0 | 0.00 | 0.01 | 0.01 | 77 | 1023.4 |
| 20260831164658 | 74 | 318 | 0.0 | 0.0 | 0.00 | 0.01 | 0.01 | 77 | 1023.4 |
| 20260831164154 | 74 | 322 | 0.0 | 1.0 | 0.00 | 0.01 | 0.01 | 72 | 1023.3 |
| 20260831163649 | 75 | 318 | 0.0 | 0.0 | 0.00 | 0.01 | 0.01 | 74 | 1022.9 |
| 20260831163145 | 74 | 329 | 0.0 | 0.0 | 0.00 | 0.01 | 0.01 | 75 | 1023.3 |
| 20260831162644 | 75 | 320 | 0.0 | 0.0 | 0.00 | 0.01 | 0.01 | 74 | 1023.3 |
| 20260831162142 | 74 | 317 | 0.0 | 0.0 | 0.00 | 0.01 | 0.01 | 77 | 1023.3 |
| 20260831161638 | 75 | 313 | 1.0 | 1.0 | 0.00 | 0.01 | 0.01 | 77 | 1023.6 |
| 20260831161134 | 74 | 324 | 0.0 | 0.0 | 0.00 | 0.01 | 0.01 | 75 | 1023.6 |
| 20260831160633 | 74 | 311 | 1.0 | 1.0 | 0.00 | 0.01 | 0.01 | 75 | 1023.7 |
| 20260831160129 | 74 | 326 | 1.0 | 1.0 | 0.00 | 0.01 | 0.01 | 76 | 1023.7 |
| 20260831155628 | 75 | 290 | 0.0 | 1.0 | 0.00 | 0.01 | 0.01 | 77 | 1023.7 |
| 20260831155124 | 75 | 304 | 0.0 | 0.0 | 0.00 | 0.01 | 0.01 | 74 | 1023.5 |
| 20260831154619 | 75 | 316 | 0.0 | 0.0 | 0.00 | 0.01 | 0.01 | 74 | 1023.9 |
| 20260831154114 | 74 | 349 | 2.0 | 2.0 | 0.00 | 0.01 | 0.01 | 74 | 1023.9 |
| 20260831153613 | 74 | 326 | 1.0 | 1.0 | 0.00 | 0.01 | 0.01 | 76 | 1023.9 |
| 20260831153110 | 73 | 318 | 0.0 | 1.0 | 0.00 | 0.01 | 0.01 | 76 | 1023.7 |
| 20260831152605 | 73 | 320 | 0.0 | 1.0 | 0.00 | 0.01 | 0.01 | 75 | 1023.6 |
| 20260831152101 | 74 | 316 | 0.0 | 1.0 | 0.00 | 0.01 | 0.01 | 73 | 1023.7 |
| 20260831151600 | 73 | 274 | 0.0 | 1.0 | 0.00 | 0.01 | 0.01 | 76 | 1023.7 |
| 20260831151055 | 74 | 312 | 0.0 | 0.0 | 0.00 | 0.01 | 0.01 | 76 | 1024.0 |
| 20260831150550 | 73 | 297 | 1.0 | 1.0 | 0.00 | 0.01 | 0.01 | 77 | 1023.5 |
| 20260831150046 | 71 | 320 | 0.0 | 1.0 | 0.00 | 0.01 | 0.01 | 78 | 1023.7 |
| 20260831145540 | 72 | 322 | 0.0 | 1.0 | 0.00 | 0.01 | 0.01 | 79 | 1023.9 |
| 20260831145037 | 72 | 336 | 0.0 | 1.0 | 0.00 | 0.01 | 0.01 | 79 | 1023.8 |
| 20260831144532 | 73 | 108 | 1.0 | 1.0 | 0.00 | 0.01 | 0.01 | 77 | 1023.8 |
| 20260831144027 | 72 | 333 | 0.0 | 0.0 | 0.00 | 0.01 | 0.01 | 81 | 1023.8 |